FW6987 Weather Reports


time (UTC)temp
C
wind
direction
speed
KPH
gust
KPH
rain 1hr
cm
rain 24hr
cm
rain mn
cm
humidity
%
barometer
mb
20260506123054 17 173 3.2 8.0 0.00 0.00 0.00 78 998.9
20260506121556 17 163 3.2 8.0 0.00 0.00 0.00 77 998.8
20260506120100 17 147 1.6 6.4 0.00 0.00 0.00 77 999.0
20260506114556 17 177 3.2 8.0 0.00 0.00 0.00 77 999.1
20260506113056 17 150 3.2 6.4 0.00 0.00 0.00 77 998.8
20260506111550 17 162 1.6 6.4 0.00 0.00 0.00 75 998.8
20260506110057 17 173 3.2 4.8 0.00 0.00 0.00 74 998.7
20260506104553 17 154 1.6 6.4 0.00 0.00 0.00 73 998.6
20260506103055 17 160 1.6 4.8 0.00 0.00 0.00 73 998.7
20260506101551 17 166 3.2 9.7 0.00 0.00 0.00 72 998.4
20260506100051 17 200 1.6 11.3 0.00 0.00 0.00 72 998.5
20260506094551 17 170 1.6 9.7 0.00 0.00 0.00 72 998.4
20260506093057 16 173 1.6 4.8 0.00 0.00 0.00 72 998.7
20260506091559 16 0 0.0 1.6 0.00 0.00 0.00 72 998.5
20260506090056 16 0 0.0 0.0 0.00 0.00 0.00 71 998.7
20260506084613 17 0 0.0 1.6 0.00 0.00 0.00 70 998.7
20260506083053 17 0 0.0 0.0 0.00 0.00 0.00 69 998.7
20260506081553 17 0 0.0 1.6 0.00 0.00 0.00 68 998.9
20260506073100 18 0 0.0 1.6 0.00 0.00 0.00 65 998.9
20260506071553 18 0 0.0 1.6 0.00 0.00 0.00 64 998.9
20260506061601 18 0 1.6 11.3 0.00 0.00 0.00 62 999.4
20260506050108 19 0 0.0 1.6 0.00 0.00 0.00 58 999.7
20260506044552 19 0 0.0 0.0 0.00 0.00 0.00 57 999.7
20260506043049 19 0 0.0 0.0 0.00 0.00 0.00 56 999.7
20260506041548 20 0 0.0 0.0 0.00 0.00 0.00 55 999.6
20260506040101 20 0 0.0 0.0 0.00 0.00 0.00 54 999.5
20260506034551 20 0 0.0 0.0 0.00 0.00 0.00 53 999.5
20260506033051 21 0 0.0 3.2 0.00 0.00 0.00 51 999.4
20260506031552 21 164 0.0 3.2 0.00 0.00 0.00 50 999.5
20260506030054 21 0 0.0 8.0 0.00 0.00 0.00 50 999.5
20260506024558 21 0 0.0 4.8 0.00 0.00 0.00 49 999.4
20260506023050 21 0 0.0 1.6 0.00 0.00 0.00 48 999.5
20260506021601 21 0 0.0 1.6 0.00 0.00 0.00 49 999.4
20260506020049 21 0 0.0 1.6 0.00 0.00 0.00 47 999.3
20260506014550 22 0 0.0 0.0 0.00 0.00 0.00 46 999.2
20260506013056 22 0 0.0 4.8 0.00 0.00 0.00 46 999.1
20260506011602 22 0 0.0 4.8 0.00 0.00 0.00 46 998.9
20260506010052 22 0 0.0 1.6 0.00 0.00 0.00 46 998.7
20260506004556 22 0 0.0 4.8 0.00 0.00 0.00 45 998.7
20260506003051 22 0 0.0 8.0 0.00 0.00 0.00 44 998.5
20260506001554 23 0 0.0 11.3 0.00 0.00 0.00 43 998.3
20260506000057 23 0 0.0 6.4 0.00 0.00 0.00 43 998.3
20260505234606 23 195 0.0 6.4 0.00 0.00 0.00 42 998.1
20260505233055 23 0 1.6 6.4 0.00 0.00 0.00 41 997.9
20260505231608 24 0 1.6 8.0 0.00 0.00 0.00 40 997.5
20260505230058 24 0 1.6 6.4 0.00 0.00 0.00 39 997.6
20260505224606 25 0 1.6 6.4 0.00 0.00 0.00 39 997.3
20260505223106 25 216 1.6 19.3 0.00 0.00 0.00 37 997.1
20260505221606 25 202 1.6 8.0 0.00 0.00 0.00 37 997.0
20260505220058 25 164 4.8 12.9 0.00 0.00 0.00 35 996.7
20260505214614 25 0 1.6 14.5 0.00 0.00 0.00 37 996.6
20260505213102 26 173 8.0 17.7 0.00 0.00 0.00 35 996.4
20260505211601 26 195 3.2 16.1 0.00 0.00 0.00 36 996.4
20260505210058 26 166 4.8 12.9 0.00 0.00 0.00 35 996.4
20260505204556 26 211 4.8 16.1 0.00 0.00 0.00 34 996.3
20260505203054 26 185 4.8 17.7 0.00 0.00 0.00 34 996.3
20260505201558 26 160 8.0 20.9 0.00 0.00 0.00 36 996.4
20260505200059 26 248 6.4 19.3 0.00 0.00 0.00 36 996.6
20260505194557 26 205 4.8 22.5 0.00 0.00 0.00 35 996.8
20260505193056 26 217 4.8 19.3 0.00 0.00 0.00 35 997.1
20260505191554 26 163 8.0 16.1 0.00 0.00 0.00 35 997.2
20260505190054 26 0 0.0 0.0 0.00 0.00 0.00 38 997.2
20260505184553 26 0 0.0 12.9 0.00 0.00 0.00 39 997.6
20260505183106 26 0 0.0 8.0 0.00 0.00 0.00 41 997.6
20260505181554 26 0 0.0 8.0 0.00 0.00 0.00 39 997.9
20260505174601 26 0 0.0 0.0 0.00 0.00 0.00 44 997.9
20260505173054 25 0 0.0 0.0 0.00 0.00 0.00 44 998.3
20260505171551 25 0 0.0 0.0 0.00 0.00 0.00 46 998.3
20260505170055 25 0 0.0 0.0 0.00 0.00 0.00 44 998.3
20260505164551 25 0 0.0 0.0 0.00 0.00 0.00 47 998.6
20260505163053 25 0 0.0 0.0 0.00 0.00 0.00 49 998.9
20260505161602 24 0 0.0 0.0 0.00 0.00 0.00 49 999.0
20260505153102 23 0 0.0 0.0 0.00 0.00 0.00 52 999.6
20260505151607 23 0 0.0 0.0 0.00 0.00 0.00 52 999.6
20260505140111 19 0 0.0 0.0 0.00 0.00 0.00 63 1000.2
20260505124607 13 0 0.0 0.0 0.00 0.00 0.00 75 1000.3